Powrót do katalogu

FENGYUN 1C DEB

AktywnySSO
NORAD 31368·DEBRIS·🇨🇳 China

Wystrzelony May 10, 1999 z Taiyuan Satellite Launch Center

Loading…

Następne Przeloty (najbliższe 24 godziny)

TLE

Starzejące sięSource: Space-Track

Epoka: Sep 7, 2026, 08:25 UTC

1 31368U 99025BRY 26250.35091643  .00000787  00000-0  35117-3 0  9994
2 31368  99.1290  90.3257 0044056 240.4905 119.1876 14.25311215682882

Śledź FENGYUN 1C DEB w czasie rzeczywistym z AllMySat

Download on the App Store